Other Surface Observations
Issued by NWS

Home | Current Version | Previous Version | Text Only | Print | Product List | Glossary On
Versions: 1 2 3 4 5 6 7 8 9 10 11 12 13 14 15 16 17 18 19 20 21 22 23 24 25 26 27 28 29 30 31 32 33 34 35 36 37 38 39 40 41 42 43 44 45 46 47 48 49 50
000
SXUS52 KTAE 040218
OSOTAE
OSOTAE
North Florida/South Alabama/Southwest Georgia Weather Roundup
National Weather Service Tallahassee Florida
1000 PM EDT THU SEP 03 2015

Note: "fair" indicates few or no clouds below 12,000 feet with no
significant weather and/or obstructions to visibility.

!FLZ017-115-028-034-025-040300
...North Florida...

CITY           SKY/WX    TMP DP  RH WIND       PRES   REMARKS
TALLAHASSEE    CLOUDY    76  72  87 SW5       29.93R
APALACHICOLA   MOCLDY    77  75  93 NW3       29.94R
PERRY          MOCLDY    78  75  89 CALM      29.94R
CROSS CITY       N/A     82  78  88 CALM      29.92R HX  91
JACKSONVILLE   MOCLDY    80  77  90 CALM      29.92R
$$

!FLZ112-006-005-002-011-040300
...Florida Panhandle...

CITY           SKY/WX    TMP DP  RH WIND       PRES   REMARKS
MARIANNA       PTCLDY    74  72  93 CALM      29.92S
BONIFAY        NOT AVBL
PANAMA CITY NW FAIR      77  71  82 NE5       29.93R
TYNDALL AFB    MOCLDY    79  75  86 NW3       29.94R
TYND DRONE APT FAIR      80  76  89 W3        29.93R
DE FUNIAK SPR  FAIR      76  74  93 CALM      29.95S
EGLIN AFB      MOCLDY    79  73  81 NE3       29.94R
DESTIN         PTCLDY    80  73  79 CALM      29.94R
HURLBURT       PTCLDY    82  74  76 W5        29.93R
CRESTVIEW      PTCLDY    73  72  96 CALM      29.96R FOG
PENSACOLA      CLEAR     81  72  74 W7        29.94R
$$

!ALZ063-066-040300
...South Alabama...

CITY           SKY/WX    TMP DP  RH WIND       PRES   REMARKS
DOTHAN         PTCLDY    75  72  90 SW5       29.97R
OZARK CAIRNS   PTCLDY    74  73  97 S3        29.94
FT RUCKER HELI PTCLDY    77  71  82 S3        29.93S
RUCKER HELI 3  FAIR      77  71  82 W2        29.95S
RUCKER HELI 2  NOT AVBL
FLORALA APT    CLEAR     74  72  93 CALM      29.97R
ANDALUSIA      PTCLDY    77  72  84 S3        29.95R
TROY           PTCLDY    75  70  84 CALM      29.96R
EUFALA         FAIR      80  71  74 W3        29.92R
MOBILE         PTCLDY    77  74  90 S8        29.96R
$$

!GAZ120>161-040300
...Southwest and South Central Georgia...

CITY           SKY/WX    TMP DP  RH WIND       PRES   REMARKS
THOMASVILLE    FAIR      77  73  88 CALM      29.94R
BAINBRIDGE     PTCLDY    77  72  83 SW3       29.93S
MOODY AFB      MOCLDY    79  75  88 SW5       29.93R
VALDOSTA       CLOUDY    78  74  87 CALM      29.93R
MOULTRIE       PTCLDY    79  73  83 CALM      29.94R
BLAKELY        MOCLDY    81  73  78 CALM      29.93S
ALBANY         CLEAR     80  73  79 SW5       29.94R
TIFTON         FAIR      77  75  93 CALM      29.93R
FITZGERALD     FAIR      77  76  96 CALM      29.95R FOG
CORDELE        FAIR      80  78  93 CALM      29.94R
AMERICUS       FAIR      75  75 100 CALM      29.95R
HOMERVILLE     MOCLDY    81  81 100 CALM      29.93R HX  91
$$

!GMZ750-755-770-775-040300
...Coastal and Buoy Obs...

STATION/POSITION TIME  TEMP    WIND        PRES    VSBY  WAVE
                       AIR SEA DIR/SP/G                  HT/PER
                 (UTC) (F)     (DEG/KT/KT) (MB)    (MI)  (FT/S)
KEATON BEACH     0200   80      CALM  /  1 1013.9R
CEDAR KEY        0200   85     290/  6/  8 1014.1R
C TOWER          0200   83     310/  6/  7 1013.7R
APALACHICOLA BUO 0150   84 86  280/  4/  6 1014.0R         1/ 6
PANAMA CITY BUOY 0150   82 86  270/  2/  6 1014.4R         1/ 5
MOBILE BUOY      0150   80 84  220/  2/  4 1014.0R         2/ 5
ORANGE BCH AL BU 0150   83 86  250/  8/  8 1013.1R         1/ 4
$$



USA.gov is the U.S. government's official web portal to all federal, state and local government web resources and services.